Zurück zum Katalog

CZ-4C DEB

AktivSSO
NORAD 38661·DEBRIS·🇨🇳 China

Gestartet May 29, 2012 von Taiyuan Satellite Launch Center

Loading…

Nächste Überflüge (nächste 24 Stunden)

TLE

AktuellSource: Space-Track

Epoche: Sep 13, 2026, 09:20 UTC

1 38661U 12029C   26256.38913322  .00000067  00000-0  26029-3 0  9995
2 38661 100.0511 305.9095 0124665  95.3485 266.1868 13.19912142685192

Verfolge CZ-4C DEB in Echtzeit mit AllMySat

Download on the App Store